CSN663 KZNC-PFSH

Flight info

Callsign CSN663
Flight time N/A
Altitude 8000
Route WOGAX UNK
Aircraft C208/L-SDFGR/C

Departure

Time N/A
Airport KZNC

Arrival

Time 2026-05-04 03:32
Airport Shaktoolik Airport (PFSH)
Time Latitude Longitude Altitude Speed Heading
2026-05-04 02:17 60.98312 -159.98465 643 ft 97 kts 60°
2026-05-04 02:17 60.98664 -159.97383 1003 ft 89 kts 51°
2026-05-04 02:17 60.99066 -159.96329 1251 ft 99 kts 46°
2026-05-04 02:18 60.99565 -159.95251 1535 ft 108 kts 41°
2026-05-04 02:18 61.00144 -159.94195 1847 ft 112 kts 37°
2026-05-04 02:18 61.00795 -159.93307 2175 ft 113 kts 19°
2026-05-04 02:18 61.01555 -159.92833 2479 ft 114 kts 15°
2026-05-04 02:19 61.02312 -159.92361 2741 ft 116 kts
2026-05-04 02:19 61.03107 -159.92548 3010 ft 115 kts 348°
2026-05-04 02:19 61.03904 -159.92812 3275 ft 117 kts 350°
2026-05-04 02:19 61.04710 -159.93070 3538 ft 117 kts 350°
2026-05-04 02:20 61.05523 -159.93341 3797 ft 118 kts 347°
2026-05-04 02:20 61.06334 -159.93706 4049 ft 122 kts 347°
2026-05-04 02:20 61.07201 -159.94048 4323 ft 130 kts 348°
2026-05-04 02:20 61.08088 -159.94397 4716 ft 129 kts 347°
2026-05-04 02:21 61.08973 -159.94742 5110 ft 129 kts 347°
2026-05-04 02:21 61.09856 -159.95086 5494 ft 128 kts 347°
2026-05-04 02:21 61.10719 -159.95420 5879 ft 127 kts 347°
2026-05-04 02:21 61.11583 -159.95754 6283 ft 125 kts 347°
2026-05-04 02:22 61.12442 -159.96087 6671 ft 125 kts 347°
2026-05-04 02:22 61.13293 -159.96417 7048 ft 123 kts 347°
2026-05-04 02:22 61.14129 -159.96742 7416 ft 122 kts 347°
2026-05-04 02:22 61.14958 -159.97063 7795 ft 120 kts 347°
2026-05-04 02:23 61.15778 -159.97383 8149 ft 122 kts 346°
2026-05-04 02:23 61.16707 -159.97748 8174 ft 148 kts 348°
2026-05-04 02:23 61.17779 -159.98157 8175 ft 164 kts 348°
2026-05-04 02:23 61.18925 -159.98595 8172 ft 174 kts 348°
2026-05-04 02:24 61.20139 -159.99064 8171 ft 180 kts 348°
2026-05-04 02:24 61.21379 -159.99545 8166 ft 182 kts 348°
2026-05-04 02:24 61.22635 -160.00035 8166 ft 184 kts 348°
2026-05-04 02:24 61.23896 -160.00525 8165 ft 184 kts 348°
2026-05-04 02:25 61.25166 -160.01021 8161 ft 185 kts 348°
2026-05-04 02:25 61.25578 -160.01182 8163 ft 185 kts 348°
2026-05-04 02:25 61.27407 -160.01896 8168 ft 185 kts 348°
2026-05-04 02:25 61.28672 -160.02391 8161 ft 185 kts 348°
2026-05-04 02:26 61.29940 -160.02887 8156 ft 185 kts 348°
2026-05-04 02:26 61.31204 -160.03382 8157 ft 185 kts 348°
2026-05-04 02:26 61.32471 -160.03879 8156 ft 185 kts 348°
2026-05-04 02:26 61.33738 -160.04376 8154 ft 185 kts 348°
2026-05-04 02:27 61.35003 -160.04872 8155 ft 185 kts 348°
2026-05-04 02:27 61.36268 -160.05370 8154 ft 184 kts 348°
2026-05-04 02:27 61.37532 -160.05864 8154 ft 184 kts 348°
2026-05-04 02:27 61.38793 -160.06361 8152 ft 184 kts 348°
2026-05-04 02:28 61.40037 -160.06853 8151 ft 184 kts 348°
2026-05-04 02:28 61.41296 -160.07349 8150 ft 184 kts 348°
2026-05-04 02:28 61.42563 -160.07849 8151 ft 184 kts 348°
2026-05-04 02:28 61.43823 -160.08345 8149 ft 184 kts 348°
2026-05-04 02:29 61.45084 -160.08844 8149 ft 184 kts 348°
2026-05-04 02:29 61.46345 -160.09343 8146 ft 184 kts 348°
2026-05-04 02:29 61.47606 -160.09842 8147 ft 184 kts 348°
2026-05-04 02:29 61.48854 -160.10336 8146 ft 184 kts 348°
2026-05-04 02:30 61.50122 -160.10737 8144 ft 184 kts 353°
2026-05-04 02:30 61.51398 -160.10999 8143 ft 184 kts 353°
2026-05-04 02:30 61.52670 -160.11288 8145 ft 184 kts 352°
2026-05-04 02:30 61.53948 -160.11577 8143 ft 184 kts 352°
2026-05-04 02:31 61.55224 -160.11864 8145 ft 184 kts 353°
2026-05-04 02:31 61.56501 -160.12150 8141 ft 184 kts 353°
2026-05-04 02:31 61.57764 -160.12432 8142 ft 184 kts 353°
2026-05-04 02:31 61.59043 -160.12719 8143 ft 184 kts 353°
2026-05-04 02:32 61.60302 -160.13002 8141 ft 184 kts 353°
2026-05-04 02:32 61.61578 -160.13288 8140 ft 184 kts 353°
2026-05-04 02:32 61.62854 -160.13574 8140 ft 184 kts 352°
2026-05-04 02:32 61.64134 -160.13861 8140 ft 184 kts 352°
2026-05-04 02:33 61.65410 -160.14148 8139 ft 184 kts 353°
2026-05-04 02:33 61.66688 -160.14436 8140 ft 184 kts 352°
2026-05-04 02:33 61.67950 -160.14720 8139 ft 184 kts 352°
2026-05-04 02:33 61.69227 -160.15008 8140 ft 184 kts 352°
2026-05-04 02:34 61.70506 -160.15296 8134 ft 184 kts 352°
2026-05-04 02:34 61.71783 -160.15586 8139 ft 184 kts 352°
2026-05-04 02:34 61.73047 -160.15872 8137 ft 184 kts 352°
2026-05-04 02:34 61.74328 -160.16161 8137 ft 184 kts 352°
2026-05-04 02:35 61.75603 -160.16449 8135 ft 184 kts 352°
2026-05-04 02:35 61.76884 -160.16740 8134 ft 184 kts 352°
2026-05-04 02:35 61.78158 -160.17028 8135 ft 184 kts 352°
2026-05-04 02:35 61.79439 -160.17318 8136 ft 185 kts 352°
2026-05-04 02:36 61.80720 -160.17611 8137 ft 184 kts 352°
2026-05-04 02:36 61.81982 -160.17897 8138 ft 184 kts 352°
2026-05-04 02:36 61.83263 -160.18188 8140 ft 184 kts 352°
2026-05-04 02:36 61.84539 -160.18479 8138 ft 184 kts 352°
2026-05-04 02:37 61.85813 -160.18769 8137 ft 184 kts 352°
2026-05-04 02:37 61.87089 -160.19062 8139 ft 184 kts 352°
2026-05-04 02:37 61.88368 -160.19353 8136 ft 184 kts 352°
2026-05-04 02:37 61.89646 -160.19645 8138 ft 184 kts 352°
2026-05-04 02:38 61.90905 -160.19933 8140 ft 185 kts 352°
2026-05-04 02:38 61.92184 -160.20225 8140 ft 185 kts 352°
2026-05-04 02:38 61.93466 -160.20519 8143 ft 185 kts 352°
2026-05-04 02:38 61.94745 -160.20812 8140 ft 184 kts 352°
2026-05-04 02:39 61.96024 -160.21106 8136 ft 184 kts 352°
2026-05-04 02:39 61.97301 -160.21399 8145 ft 184 kts 352°
2026-05-04 02:39 61.98562 -160.21689 8141 ft 184 kts 352°
2026-05-04 02:39 61.99841 -160.21983 8143 ft 184 kts 352°
2026-05-04 02:40 62.01120 -160.22277 8141 ft 184 kts 352°
2026-05-04 02:40 62.02399 -160.22573 8139 ft 184 kts 352°
2026-05-04 02:40 62.03661 -160.22864 8142 ft 184 kts 352°
2026-05-04 02:40 62.04940 -160.23160 8141 ft 185 kts 352°
2026-05-04 02:41 62.06222 -160.23454 8140 ft 185 kts 352°
2026-05-04 02:41 62.07501 -160.23749 8141 ft 185 kts 352°
2026-05-04 02:41 62.08778 -160.24046 8141 ft 185 kts 352°
2026-05-04 02:41 62.10057 -160.24343 8143 ft 185 kts 352°
2026-05-04 02:42 62.11340 -160.24639 8138 ft 185 kts 352°
2026-05-04 02:42 62.12622 -160.24935 8139 ft 185 kts 352°
2026-05-04 02:42 62.13898 -160.25232 8143 ft 185 kts 352°
2026-05-04 02:42 62.15165 -160.25528 8139 ft 185 kts 352°
2026-05-04 02:43 62.16459 -160.25824 8144 ft 186 kts 352°
2026-05-04 02:43 62.17745 -160.26127 8146 ft 186 kts 352°
2026-05-04 02:43 62.19020 -160.26422 8146 ft 187 kts 352°
2026-05-04 02:43 62.20314 -160.26722 8142 ft 187 kts 352°
2026-05-04 02:44 62.21611 -160.27026 8147 ft 187 kts 352°
2026-05-04 02:44 62.22905 -160.27329 8141 ft 186 kts 352°
2026-05-04 02:44 62.24195 -160.27635 8141 ft 186 kts 352°
2026-05-04 02:44 62.25463 -160.27930 8146 ft 186 kts 352°
2026-05-04 02:45 62.26752 -160.28224 8139 ft 186 kts 352°
2026-05-04 02:45 62.28038 -160.28525 8144 ft 186 kts 352°
2026-05-04 02:45 62.29321 -160.28830 8137 ft 185 kts 352°
2026-05-04 02:45 62.30605 -160.29129 8143 ft 185 kts 352°
2026-05-04 02:46 62.31892 -160.29434 8143 ft 186 kts 352°
2026-05-04 02:46 62.33164 -160.29739 8144 ft 186 kts 352°
2026-05-04 02:46 62.34454 -160.30048 8147 ft 186 kts 352°
2026-05-04 02:46 62.35748 -160.30354 8138 ft 187 kts 352°
2026-05-04 02:47 62.37043 -160.30657 8140 ft 187 kts 352°
2026-05-04 02:47 62.38318 -160.30956 8136 ft 186 kts 352°
2026-05-04 02:47 62.39609 -160.31261 8141 ft 187 kts 352°
2026-05-04 02:47 62.40901 -160.31566 8135 ft 187 kts 352°
2026-05-04 02:48 62.42190 -160.31871 8130 ft 186 kts 352°
2026-05-04 02:48 62.43473 -160.32175 8130 ft 185 kts 352°
2026-05-04 02:48 62.44756 -160.32480 8127 ft 185 kts 352°
2026-05-04 02:48 62.46034 -160.32784 8135 ft 185 kts 351°
2026-05-04 02:49 62.47304 -160.33084 8127 ft 185 kts 352°
2026-05-04 02:49 62.48588 -160.33382 8129 ft 185 kts 352°
2026-05-04 02:49 62.49876 -160.33689 8128 ft 185 kts 352°
2026-05-04 02:49 62.51155 -160.33995 8131 ft 185 kts 352°
2026-05-04 02:50 62.52428 -160.34301 8128 ft 187 kts 352°
2026-05-04 02:50 62.53722 -160.34610 8122 ft 187 kts 352°
2026-05-04 02:50 62.55013 -160.34916 8127 ft 187 kts 352°
2026-05-04 02:50 62.56310 -160.35223 8129 ft 188 kts 351°
2026-05-04 02:51 62.57608 -160.35533 8120 ft 187 kts 352°
2026-05-04 02:51 62.58899 -160.35845 8120 ft 186 kts 351°
2026-05-04 02:51 62.60169 -160.36151 8118 ft 185 kts 351°
2026-05-04 02:51 62.61452 -160.36457 8123 ft 186 kts 352°
2026-05-04 02:52 62.62747 -160.36765 8122 ft 186 kts 351°
2026-05-04 02:52 62.64035 -160.37068 8123 ft 186 kts 352°
2026-05-04 02:52 62.65328 -160.37389 8122 ft 186 kts 351°
2026-05-04 02:52 62.66604 -160.37701 8123 ft 186 kts 352°
2026-05-04 02:53 62.67895 -160.38006 8122 ft 187 kts 352°
2026-05-04 02:53 62.69188 -160.38316 8118 ft 186 kts 351°
2026-05-04 02:53 62.70472 -160.38625 8124 ft 185 kts 351°
2026-05-04 02:53 62.71761 -160.38935 8122 ft 185 kts 351°
2026-05-04 02:54 62.73045 -160.39245 8124 ft 185 kts 351°
2026-05-04 02:54 62.74312 -160.39550 8123 ft 186 kts 351°
2026-05-04 02:54 62.75598 -160.39866 8128 ft 186 kts 351°
2026-05-04 02:54 62.76883 -160.40175 8130 ft 186 kts 351°
2026-05-04 02:55 62.79460 -160.40802 8133 ft 188 kts 351°
2026-05-04 02:55 62.80762 -160.41117 8131 ft 187 kts 351°
2026-05-04 02:55 62.82041 -160.41428 8139 ft 187 kts 352°
2026-05-04 02:56 62.83340 -160.41740 8136 ft 188 kts 351°
2026-05-04 02:56 62.84639 -160.42061 8138 ft 188 kts 351°
2026-05-04 02:56 62.85937 -160.42378 8137 ft 187 kts 351°
2026-05-04 02:56 62.87237 -160.42697 8142 ft 187 kts 351°
2026-05-04 02:57 62.88539 -160.43011 8139 ft 188 kts 351°
2026-05-04 02:57 62.89819 -160.43326 8138 ft 187 kts 351°
2026-05-04 02:57 62.91114 -160.43642 8146 ft 186 kts 351°
2026-05-04 02:57 62.92406 -160.43956 8145 ft 187 kts 351°
2026-05-04 02:58 62.93700 -160.44276 8151 ft 187 kts 351°
2026-05-04 02:58 62.94992 -160.44592 8156 ft 188 kts 351°
2026-05-04 02:58 62.96292 -160.44913 8154 ft 187 kts 351°
2026-05-04 02:58 62.97585 -160.45227 8150 ft 186 kts 351°
2026-05-04 02:59 62.98878 -160.45545 8159 ft 187 kts 351°
2026-05-04 02:59 63.00175 -160.45875 8156 ft 187 kts 351°
2026-05-04 02:59 63.01455 -160.46183 8155 ft 187 kts 351°
2026-05-04 02:59 63.02757 -160.46499 8161 ft 189 kts 351°
2026-05-04 03:00 63.04061 -160.46828 8153 ft 188 kts 351°
2026-05-04 03:00 63.05364 -160.47147 8157 ft 188 kts 351°
2026-05-04 03:00 63.06647 -160.47458 8155 ft 187 kts 351°
2026-05-04 03:00 63.07938 -160.47782 8159 ft 186 kts 351°
2026-05-04 03:01 63.09228 -160.48102 8157 ft 187 kts 351°
2026-05-04 03:01 63.10522 -160.48425 8156 ft 186 kts 351°
2026-05-04 03:01 63.11374 -160.48636 8158 ft 186 kts 351°
2026-05-04 03:01 63.13090 -160.49059 8159 ft 187 kts 351°
2026-05-04 03:02 63.14379 -160.49378 8155 ft 186 kts 351°
2026-05-04 03:02 63.15237 -160.49593 8160 ft 187 kts 351°
2026-05-04 03:02 63.16531 -160.49916 8166 ft 187 kts 351°
2026-05-04 03:02 63.17832 -160.50242 8163 ft 188 kts 351°
2026-05-04 03:03 63.19128 -160.50562 8160 ft 186 kts 351°
2026-05-04 03:03 63.20424 -160.50883 8161 ft 188 kts 351°
2026-05-04 03:03 63.21727 -160.51213 8169 ft 189 kts 351°
2026-05-04 03:03 63.23037 -160.51540 8164 ft 189 kts 351°
2026-05-04 03:04 63.24336 -160.51864 8166 ft 188 kts 351°
2026-05-04 03:04 63.25622 -160.52185 8169 ft 188 kts 351°
2026-05-04 03:04 63.26928 -160.52512 8164 ft 187 kts 351°
2026-05-04 03:04 63.28227 -160.52842 8260 ft 188 kts 351°
2026-05-04 03:05 63.29529 -160.53167 8167 ft 188 kts 351°
2026-05-04 03:05 63.30831 -160.53495 8168 ft 188 kts 351°
2026-05-04 03:05 63.32118 -160.53819 8165 ft 188 kts 351°
2026-05-04 03:05 63.33416 -160.54146 8178 ft 188 kts 351°
2026-05-04 03:06 63.34711 -160.54474 8178 ft 187 kts 351°
2026-05-04 03:06 63.36005 -160.54802 8171 ft 187 kts 351°
2026-05-04 03:06 63.37295 -160.55125 8175 ft 186 kts 351°
2026-05-04 03:06 63.38587 -160.55451 8176 ft 186 kts 351°
2026-05-04 03:07 63.39872 -160.55774 8177 ft 186 kts 351°
2026-05-04 03:07 63.41144 -160.56097 8176 ft 186 kts 351°
2026-05-04 03:07 63.42430 -160.56424 8173 ft 186 kts 351°
2026-05-04 03:07 63.43729 -160.56753 8179 ft 187 kts 351°
2026-05-04 03:08 63.45007 -160.57077 8172 ft 187 kts 351°
2026-05-04 03:08 63.46299 -160.57406 8179 ft 187 kts 351°
2026-05-04 03:08 63.47592 -160.57735 8176 ft 186 kts 351°
2026-05-04 03:08 63.48888 -160.58065 8177 ft 186 kts 351°
2026-05-04 03:09 63.50180 -160.58394 8177 ft 186 kts 351°
2026-05-04 03:09 63.51464 -160.58722 8177 ft 186 kts 351°
2026-05-04 03:09 63.52756 -160.59051 8176 ft 186 kts 351°
2026-05-04 03:09 63.54031 -160.59378 8181 ft 187 kts 351°
2026-05-04 03:10 63.55327 -160.59710 8181 ft 187 kts 351°
2026-05-04 03:10 63.56625 -160.60043 8179 ft 187 kts 351°
2026-05-04 03:10 63.57923 -160.60375 8179 ft 187 kts 351°
2026-05-04 03:10 63.59201 -160.60700 8185 ft 186 kts 351°
2026-05-04 03:11 63.60490 -160.61033 8181 ft 187 kts 351°
2026-05-04 03:11 63.61783 -160.61365 8187 ft 187 kts 351°
2026-05-04 03:11 63.63076 -160.61697 8187 ft 187 kts 350°
2026-05-04 03:11 63.64369 -160.62032 8190 ft 187 kts 351°
2026-05-04 03:12 63.65665 -160.62363 8190 ft 187 kts 351°
2026-05-04 03:12 63.66959 -160.62698 8192 ft 187 kts 351°
2026-05-04 03:12 63.68243 -160.63030 8194 ft 188 kts 350°
2026-05-04 03:12 63.69542 -160.63364 8191 ft 188 kts 351°
2026-05-04 03:13 63.70839 -160.63696 8197 ft 187 kts 351°
2026-05-04 03:13 63.72136 -160.64034 8198 ft 187 kts 350°
2026-05-04 03:13 63.73431 -160.64371 8200 ft 187 kts 350°
2026-05-04 03:13 63.74726 -160.64707 8200 ft 187 kts 350°
2026-05-04 03:14 63.76012 -160.65041 8202 ft 187 kts 350°
2026-05-04 03:14 63.77310 -160.65379 8198 ft 187 kts 350°
2026-05-04 03:14 63.78611 -160.65716 8200 ft 187 kts 350°
2026-05-04 03:14 63.79904 -160.66053 8200 ft 187 kts 350°
2026-05-04 03:15 63.81204 -160.66391 8207 ft 187 kts 350°
2026-05-04 03:15 63.82498 -160.66729 8206 ft 187 kts 350°
2026-05-04 03:15 63.83794 -160.67069 8205 ft 187 kts 350°
2026-05-04 03:15 63.85073 -160.67402 8205 ft 187 kts 350°
2026-05-04 03:16 63.86372 -160.67741 8205 ft 187 kts 350°
2026-05-04 03:16 63.87669 -160.68083 8204 ft 187 kts 350°
2026-05-04 03:16 63.88963 -160.68441 8205 ft 187 kts 347°
2026-05-04 03:16 63.90151 -160.69528 8207 ft 183 kts 328°
2026-05-04 03:17 63.91280 -160.70821 8204 ft 184 kts 330°
2026-05-04 03:17 63.92440 -160.72080 8208 ft 184 kts 330°
2026-05-04 03:17 63.93594 -160.73354 8205 ft 184 kts 330°
2026-05-04 03:17 63.94748 -160.74634 8209 ft 184 kts 330°
2026-05-04 03:18 63.95903 -160.75915 8208 ft 185 kts 330°
2026-05-04 03:18 63.97055 -160.77196 8208 ft 185 kts 330°
2026-05-04 03:18 63.98200 -160.78471 8205 ft 185 kts 330°
2026-05-04 03:18 63.99357 -160.79758 8207 ft 185 kts 330°
2026-05-04 03:19 64.00513 -160.81048 8202 ft 185 kts 330°
2026-05-04 03:19 64.01667 -160.82335 8201 ft 184 kts 330°
2026-05-04 03:19 64.02814 -160.83658 8200 ft 183 kts 326°
2026-05-04 03:19 64.03879 -160.85211 8204 ft 183 kts 322°
2026-05-04 03:20 64.04953 -160.86760 8142 ft 175 kts 324°
2026-05-04 03:20 64.05945 -160.88110 7856 ft 158 kts 324°
2026-05-04 03:20 64.06867 -160.89372 7574 ft 151 kts 324°
2026-05-04 03:20 64.07742 -160.90573 7297 ft 147 kts 324°
2026-05-04 03:21 64.08613 -160.91768 7029 ft 145 kts 324°
2026-05-04 03:21 64.09476 -160.92954 6769 ft 144 kts 324°
2026-05-04 03:21 64.10330 -160.94126 6504 ft 143 kts 324°
2026-05-04 03:21 64.11193 -160.95313 6222 ft 143 kts 325°
2026-05-04 03:22 64.12043 -160.96480 5953 ft 142 kts 325°
2026-05-04 03:22 64.12877 -160.97628 5686 ft 141 kts 325°
2026-05-04 03:22 64.13719 -160.98786 5420 ft 141 kts 325°
2026-05-04 03:22 64.14558 -160.99943 5151 ft 140 kts 326°
2026-05-04 03:23 64.15385 -161.01081 4903 ft 133 kts 326°
2026-05-04 03:23 64.16157 -161.02150 4653 ft 126 kts 326°
2026-05-04 03:23 64.16879 -161.03142 4454 ft 119 kts 326°
2026-05-04 03:23 64.17586 -161.04097 4258 ft 117 kts 330°
2026-05-04 03:24 64.18391 -161.04232 4048 ft 118 kts
2026-05-04 03:24 64.19139 -161.04777 3857 ft 114 kts 325°
2026-05-04 03:24 64.19827 -161.05679 3669 ft 113 kts 328°
2026-05-04 03:24 64.20528 -161.06510 3482 ft 113 kts 331°
2026-05-04 03:25 64.21244 -161.07268 3291 ft 113 kts 333°
2026-05-04 03:25 64.21962 -161.07996 3098 ft 113 kts 334°
2026-05-04 03:25 64.22682 -161.08703 2911 ft 112 kts 334°
2026-05-04 03:25 64.23400 -161.09406 2716 ft 112 kts 334°
2026-05-04 03:26 64.24115 -161.10106 2528 ft 112 kts 334°
2026-05-04 03:26 64.24827 -161.10797 2331 ft 112 kts 333°
2026-05-04 03:26 64.25538 -161.11489 2186 ft 108 kts 334°
2026-05-04 03:26 64.26197 -161.12126 2176 ft 99 kts 333°
2026-05-04 03:27 64.26820 -161.12732 2174 ft 95 kts 333°
2026-05-04 03:27 64.27437 -161.13339 2110 ft 97 kts 333°
2026-05-04 03:27 64.28053 -161.13915 1955 ft 92 kts 333°
2026-05-04 03:27 64.28627 -161.14451 1796 ft 84 kts 333°
2026-05-04 03:28 64.29142 -161.14934 1624 ft 77 kts 333°
2026-05-04 03:28 64.29636 -161.15399 1459 ft 76 kts 332°
2026-05-04 03:28 64.30132 -161.15875 1253 ft 79 kts 334°
2026-05-04 03:28 64.30639 -161.16313 1057 ft 78 kts 336°
2026-05-04 03:29 64.31158 -161.16778 801 ft 80 kts 333°
2026-05-04 03:29 64.31676 -161.17243 579 ft 81 kts 333°
2026-05-04 03:29 64.32200 -161.17833 270 ft 84 kts 332°
2026-05-04 03:29 64.32701 -161.18286 180 ft 70 kts 337°
2026-05-04 03:30 64.33134 -161.18617 245 ft 65 kts 337°
2026-05-04 03:30 64.33581 -161.19010 363 ft 73 kts 333°
2026-05-04 03:30 64.34064 -161.19512 438 ft 79 kts 331°
2026-05-04 03:30 64.34576 -161.20009 387 ft 81 kts 333°
2026-05-04 03:31 64.35094 -161.20515 311 ft 81 kts 331°
2026-05-04 03:31 64.35617 -161.21006 237 ft 80 kts 332°
2026-05-04 03:31 64.36124 -161.21501 200 ft 78 kts 333°
2026-05-04 03:31 64.36639 -161.21968 105 ft 80 kts 333°
2026-05-04 03:32 64.37134 -161.22437 40 ft 73 kts 334°
2026-05-04 03:32 64.37550 -161.22794 28 ft 27 kts 347°
2026-05-04 03:32 64.37553 -161.22818 28 ft 8 kts 155°
2026-05-04 03:32 64.37433 -161.22706 24 ft 29 kts 158°
2026-05-04 03:33 64.37232 -161.22522 28 ft 27 kts 158°
2026-05-04 03:33 64.37034 -161.22326 32 ft 34 kts 158°
2026-05-04 03:33 64.36802 -161.22108 31 ft 37 kts 155°
2026-05-04 03:33 64.36639 -161.21891 34 ft 21 kts 103°
2026-05-04 03:34 64.36595 -161.21697 45 ft 7 kts 159°
2026-05-04 03:34 64.36593 -161.21695 45 ft 0 kts 156°